Montoursville, PA

2:41 PM EST on February 21, 2017 (GMT -0500)
Williamsport Rgnl

Weather History for KIPT - June, 2013

Change the Weather History Date:

Tuesday, June 18, 2013

  Actual Average Record
Temperature  
Mean Temperature 69 °F 70 °F  
Max Temperature 80 °F 81 °F 97 °F (1994)
Min Temperature 58 °F 59 °F 38 °F (1914)
Degree Days  
Heating Degree Days 0 1  
Month to date heating degree days 9 32  
Since 1 June heating degree days 9 32  
Since 1 July heating degree days 5669 5990  
Cooling Degree Days 4 5  
Month to date cooling degree days 63 71  
Year to date cooling degree days 134 114  
Since 1 June cooling degree days 63 71  
Growing Degree Days 20 (Base 50)    
Moisture  
Dew Point 57 °F    
Average Humidity 71    
Maximum Humidity 93    
Minimum Humidity 48    
Precipitation  
Precipitation 0.00 in 0.13 in 1.10 in (1930)
Month to date precipitation 2.86 2.35  
Year to date precipitation 15.43 17.26  
Sea Level Pressure  
Sea Level Pressure 29.88 in    
Wind  
Wind Speed 4 mph (NNW)    
Max Wind Speed 13 mph    
Max Gust Speed 17 mph    
Visibility 10 miles    
Events      
T = Trace of Precipitation, MM = Missing Value Source: NWS Daily Summary

Daily Weather History Graph

Daily Weather History Graph

Search for Another Location

Airport or City:

Trip Planner

Search our weather history database for the weather conditions in past years. The results will help you decide how hot, cold, wet, or windy it might be!

Date:

Astronomy

Jun. 18, 2013 Rise Set
Actual Time 5:34 AM EDT 8:43 PM EDT
Civil Twilight 5:00 AM EDT 9:17 PM EDT
Nautical Twilight 4:17 AM EDT 10:00 PM EDT
Astronomical Twilight 3:25 AM EDT 10:52 PM EDT
Moon 3:23 PM EDT (6/18) 1:44 AM EDT (6/18)
Length of Visible Light 16h 16m
Length of Day
15h 09m
Waxing Gibbous, 70% of the Moon is Illuminated
Jun 18
Waxing Gibbous
Jun 23
Full
Jun 30
Last Quarter
Jul 8
New
Jul 15
First Quarter

Hourly Weather History & Observations

Time (EDT) Temp. Dew Point Humidity Pressure Visibility Wind Dir Wind Speed Gust Speed Precip Events Conditions
12:54 AM 63.0 °F 59.0 °F 87% 29.90 in 10.0 mi Calm Calm - N/A   Clear
1:54 AM 62.1 °F 59.0 °F 90% 29.89 in 10.0 mi Calm Calm - N/A   Clear
2:54 AM 61.0 °F 57.9 °F 90% 29.88 in 10.0 mi Calm Calm - N/A   Clear
3:54 AM 61.0 °F 57.9 °F 90% 29.87 in 10.0 mi Calm Calm - N/A   Clear
4:54 AM 60.1 °F 57.0 °F 90% 29.88 in 10.0 mi NNW 3.5 mph - N/A   Clear
5:54 AM 59.0 °F 57.0 °F 93% 29.90 in 10.0 mi Calm Calm - N/A   Clear
6:54 AM 61.0 °F 57.9 °F 90% 29.90 in 10.0 mi Calm Calm - N/A   Clear
7:04 AM 60.8 °F 57.2 °F 88% 29.91 in 10.0 mi Calm Calm - N/A   Partly Cloudy
7:54 AM 63.0 °F 59.0 °F 87% 29.90 in 10.0 mi Calm Calm - N/A   Clear
8:54 AM 66.0 °F 59.0 °F 78% 29.89 in 10.0 mi West 3.5 mph - N/A   Clear
9:54 AM 68.0 °F 59.0 °F 73% 29.88 in 10.0 mi Calm Calm - N/A   Clear
10:54 AM 73.0 °F 61.0 °F 66% 29.88 in 10.0 mi SW 4.6 mph - N/A   Clear
11:54 AM 73.9 °F 61.0 °F 64% 29.86 in 10.0 mi Calm Calm - N/A   Clear
12:54 PM 75.9 °F 62.1 °F 62% 29.85 in 10.0 mi WSW 4.6 mph - N/A   Clear
1:54 PM 79.0 °F 57.9 °F 48% 29.84 in 10.0 mi NNW 5.8 mph - N/A   Clear
2:54 PM 79.0 °F 59.0 °F 50% 29.83 in 10.0 mi North 9.2 mph - N/A   Scattered Clouds
3:54 PM 77.0 °F 59.0 °F 54% 29.82 in 10.0 mi NNE 6.9 mph - N/A   Scattered Clouds
4:54 PM 75.0 °F 59.0 °F 57% 29.84 in 10.0 mi NE 6.9 mph - N/A   Scattered Clouds
5:54 PM 73.0 °F 57.9 °F 59% 29.84 in 10.0 mi NNE 10.4 mph - N/A   Clear
6:54 PM 72.0 °F 57.0 °F 59% 29.85 in 10.0 mi NNE 5.8 mph - N/A   Clear
7:54 PM 70.0 °F 55.9 °F 61% 29.88 in 10.0 mi NNW 9.2 mph - N/A   Scattered Clouds
8:54 PM 66.9 °F 54.0 °F 63% 29.91 in 10.0 mi North 4.6 mph - N/A   Mostly Cloudy
9:54 PM 64.9 °F 52.0 °F 63% 29.92 in 10.0 mi NNW 4.6 mph - N/A   Partly Cloudy
10:54 PM 63.0 °F 50.0 °F 63% 29.94 in 10.0 mi WNW 3.5 mph - N/A   Clear
11:54 PM 61.0 °F 46.0 °F 58% 29.95 in 10.0 mi Calm Calm - N/A   Clear